STARLINK-37173

Last updated on Sun Apr 12 2026 00:02:09 GMT+0000 (Coordinated Universal Time)

1 68536U 26068AE 26101.50002315 .00074778 00000+0 37983-3 0 9991 2 68536 53.1597 344.6602 0001101 91.3791 145.3961 15.80832839 3085
UTC large
Height (km)
Speed (km/s)
/
Latitude / Longitude
Inclination (degrees)
Orbital Period (minutes)
Azimuth
Elevation
Range (km)
Doppler Factor

Next 0 passes for location: London (51.5072 / 0.1276)

Sorry there are no passes over London.
STARLINK-37173